• In Czech Republic
  • List of Countries
  • For 7 days
  • Water Temperature
  • Satellite Maps
  • Weather Map
  • Weather Widgets
  • user-avatar
    Login

    Hourly Weather Yeghegnadzor

    Today, 26 September, Tuesday

    Time Temperature Precipitation Wind Pressure Humidity
    00:00 +18°C° 0 mm 1 mps 656 mmHg 65%
    01:00 +16°C° 0 mm 1 mps 656 mmHg 66%
    02:00 +16°C° 0 mm 1 mps 655 mmHg 66%
    03:00 +15°C° 0 mm 1 mps 655 mmHg 67%
    04:00 +15°C° 0 mm 1 mps 655 mmHg 67%
    05:00 +14°C° 0 mm 1 mps 655 mmHg 66%
    06:00 +14°C° 0 mm 1 mps 655 mmHg 66%
    07:00 +16°C° 0 mm 1 mps 655 mmHg 56%
    08:00 +19°C° 0 mm 1 mps 656 mmHg 46%
    09:00 +22°C° 0 mm 1 mps 656 mmHg 36%
    10:00 +23°C° 0 mm 2 mps 656 mmHg 32%
    11:00 +24°C° 0 mm 2 mps 656 mmHg 28%
    12:00 +25°C° 0 mm 2 mps 656 mmHg 24%
    13:00 +25°C° 0 mm 2 mps 656 mmHg 24%
    14:00 +26°C° 0 mm 2 mps 656 mmHg 23%
    15:00 +26°C° 0 mm 2 mps 655 mmHg 23%
    16:00 +25°C° 0 mm 2 mps 655 mmHg 28%
    17:00 +23°C° 0 mm 1 mps 655 mmHg 33%
    18:00 +22°C° 0 mm 1 mps 654 mmHg 39%
    19:00 +21°C° 0 mm 1 mps 655 mmHg 43%
    20:00 +20°C° 0 mm 1 mps 655 mmHg 47%
    21:00 +19°C° 0 mm 1 mps 655 mmHg 51%
    22:00 +19°C° 0 mm 1 mps 655 mmHg 52%
    23:00 +19°C° 0 mm 1 mps 655 mmHg 53%

    Tomorrow, 27 September, Wednesday

    Time Temperature Precipitation Wind Pressure Humidity
    00:00 +19°C° 0 mm 1 mps 655 mmHg 54%
    01:00 +18°C° 0.1 mm 1 mps 654 mmHg 54%
    02:00 +18°C° 0.1 mm 1 mps 654 mmHg 55%
    03:00 +16°C° 0.1 mm 1 mps 654 mmHg 56%
    04:00 +16°C° 0.1 mm 1 mps 654 mmHg 56%
    05:00 +16°C° 0.1 mm 1 mps 654 mmHg 56%
    06:00 +15°C° 0.1 mm 1 mps 654 mmHg 56%
    07:00 +18°C° 0.1 mm 1 mps 654 mmHg 50%
    08:00 +20°C° 0.1 mm 1 mps 655 mmHg 44%
    09:00 +21°C° 0.1 mm 2 mps 655 mmHg 39%
    10:00 +23°C° 0 mm 2 mps 655 mmHg 36%
    11:00 +24°C° 0 mm 3 mps 655 mmHg 34%
    12:00 +25°C° 0 mm 4 mps 655 mmHg 32%
    13:00 +26°C° 0 mm 3 mps 655 mmHg 31%
    14:00 +26°C° 0 mm 3 mps 654 mmHg 30%
    15:00 +26°C° 0 mm 3 mps 654 mmHg 30%
    16:00 +25°C° 0.1 mm 3 mps 654 mmHg 36%
    17:00 +23°C° 0.1 mm 2 mps 653 mmHg 42%
    18:00 +21°C° 0.1 mm 2 mps 653 mmHg 48%
    19:00 +20°C° 0.3 mm 2 mps 653 mmHg 53%
    20:00 +19°C° 0.3 mm 2 mps 653 mmHg 59%
    21:00 +18°C° 0.3 mm 3 mps 654 mmHg 65%
    22:00 +17°C° 0.1 mm 3 mps 653 mmHg 67%
    23:00 +17°C° 0.1 mm 2 mps 653 mmHg 69%

    Day after tomorrow, 28 September, Thursday

    Time Temperature Precipitation Wind Pressure Humidity
    00:00 +16°C° 0.1 mm 2 mps 653 mmHg 70%
    01:00 +16°C° 0 mm 2 mps 653 mmHg 71%
    02:00 +15°C° 0 mm 2 mps 653 mmHg 71%
    03:00 +15°C° 0 mm 2 mps 653 mmHg 72%
    04:00 +15°C° 0 mm 1 mps 653 mmHg 72%
    05:00 +14°C° 0 mm 1 mps 653 mmHg 73%
    06:00 +14°C° 0 mm 1 mps 653 mmHg 73%
    07:00 +16°C° 0 mm 2 mps 654 mmHg 66%
    08:00 +17°C° 0 mm 2 mps 655 mmHg 59%
    09:00 +19°C° 0 mm 2 mps 655 mmHg 52%
    10:00 +20°C° 0.1 mm 2 mps 655 mmHg 49%
    11:00 +20°C° 0.1 mm 3 mps 656 mmHg 46%
    12:00 +21°C° 0.1 mm 3 mps 656 mmHg 44%
    13:00 +21°C° 0.2 mm 3 mps 656 mmHg 43%
    14:00 +22°C° 0.2 mm 3 mps 655 mmHg 42%
    15:00 +22°C° 0.2 mm 3 mps 655 mmHg 42%
    16:00 +20°C° 0.3 mm 2 mps 655 mmHg 49%
    17:00 +19°C° 0.3 mm 2 mps 655 mmHg 56%
    18:00 +18°C° 0.3 mm 2 mps 655 mmHg 62%
    19:00 +17°C° 0.1 mm 2 mps 655 mmHg 65%
    20:00 +16°C° 0.1 mm 3 mps 656 mmHg 68%
    21:00 +16°C° 0.1 mm 3 mps 656 mmHg 70%
    22:00 +14°C° 0.1 mm 3 mps 656 mmHg 71%
    23:00 +14°C° 0.1 mm 3 mps 656 mmHg 72%

    29 September, Friday

    Time Temperature Precipitation Wind Pressure Humidity
    00:00 +15°C° 0.1 mm 2 mps 656 mmHg 73%
    01:00 +14°C° 0 mm 2 mps 656 mmHg 74%
    02:00 +14°C° 0 mm 2 mps 656 mmHg 75%
    03:00 +14°C° 0 mm 2 mps 656 mmHg 76%
    04:00 +13°C° 0 mm 2 mps 656 mmHg 76%
    05:00 +13°C° 0 mm 2 mps 656 mmHg 76%
    06:00 +13°C° 0 mm 2 mps 656 mmHg 76%
    07:00 +14°C° 0 mm 2 mps 656 mmHg 69%
    08:00 +16°C° 0 mm 2 mps 656 mmHg 61%
    09:00 +18°C° 0 mm 2 mps 657 mmHg 53%
    10:00 +19°C° 0 mm 2 mps 657 mmHg 50%
    11:00 +20°C° 0 mm 2 mps 656 mmHg 48%
    12:00 +20°C° 0 mm 3 mps 656 mmHg 45%
    13:00 +21°C° 0.1 mm 3 mps 656 mmHg 44%
    14:00 +21°C° 0.1 mm 3 mps 655 mmHg 43%
    15:00 +21°C° 0.1 mm 3 mps 655 mmHg 43%
    16:00 +20°C° 0 mm 2 mps 655 mmHg 47%
    17:00 +19°C° 0 mm 2 mps 654 mmHg 52%
    18:00 +19°C° 0 mm 1 mps 654 mmHg 56%
    19:00 +17°C° 0 mm 2 mps 654 mmHg 59%
    20:00 +16°C° 0 mm 2 mps 654 mmHg 62%
    21:00 +16°C° 0 mm 2 mps 654 mmHg 64%
    22:00 +15°C° 0 mm 2 mps 654 mmHg 63%
    23:00 +15°C° 0 mm 2 mps 654 mmHg 63%

    30 September, Saturday

    Time Temperature Precipitation Wind Pressure Humidity
    00:00 +15°C° 0 mm 2 mps 653 mmHg 62%
    01:00 +14°C° 0 mm 2 mps 653 mmHg 60%
    02:00 +14°C° 0 mm 2 mps 653 mmHg 59%
    03:00 +14°C° 0 mm 2 mps 653 mmHg 57%
    04:00 +14°C° 0 mm 2 mps 653 mmHg 56%
    05:00 +13°C° 0 mm 2 mps 653 mmHg 54%
    06:00 +13°C° 0 mm 2 mps 652 mmHg 52%
    07:00 +15°C° 0 mm 2 mps 653 mmHg 47%
    08:00 +17°C° 0 mm 2 mps 653 mmHg 43%
    09:00 +19°C° 0 mm 2 mps 654 mmHg 38%
    10:00 +20°C° 0 mm 2 mps 654 mmHg 36%
    11:00 +21°C° 0 mm 3 mps 654 mmHg 34%
    12:00 +22°C° 0 mm 3 mps 653 mmHg 32%
    13:00 +22°C° 0.4 mm 3 mps 653 mmHg 34%
    14:00 +22°C° 0.4 mm 3 mps 652 mmHg 37%
    15:00 +23°C° 0.4 mm 2 mps 652 mmHg 39%
    16:00 +20°C° 1 mm 2 mps 652 mmHg 47%
    17:00 +19°C° 1 mm 2 mps 651 mmHg 54%
    18:00 +18°C° 1 mm 2 mps 651 mmHg 61%
    19:00 +17°C° 0.4 mm 2 mps 651 mmHg 64%
    20:00 +17°C° 0.4 mm 2 mps 651 mmHg 66%
    21:00 +16°C° 0.4 mm 1 mps 652 mmHg 69%
    22:00 +16°C° 0.2 mm 1 mps 652 mmHg 69%
    23:00 +15°C° 0.2 mm 1 mps 652 mmHg 70%

    1 October, Sunday

    Time Temperature Precipitation Wind Pressure Humidity
    00:00 +15°C° 0.2 mm 1 mps 652 mmHg 70%
    01:00 +14°C° 0 mm 1 mps 652 mmHg 69%
    02:00 +14°C° 0 mm 1 mps 652 mmHg 67%
    03:00 +14°C° 0 mm 2 mps 652 mmHg 66%
    04:00 +13°C° 0 mm 2 mps 652 mmHg 66%
    05:00 +13°C° 0 mm 2 mps 652 mmHg 65%
    06:00 +13°C° 0 mm 2 mps 652 mmHg 65%
    07:00 +14°C° 0 mm 2 mps 653 mmHg 59%
    08:00 +16°C° 0 mm 2 mps 653 mmHg 54%
    09:00 +18°C° 0 mm 2 mps 654 mmHg 48%
    10:00 +19°C° 0 mm 2 mps 654 mmHg 44%
    11:00 +20°C° 0 mm 2 mps 654 mmHg 41%
    12:00 +21°C° 0 mm 3 mps 654 mmHg 38%
    13:00 +22°C° 0 mm 3 mps 654 mmHg 38%
    14:00 +23°C° 0 mm 2 mps 653 mmHg 37%
    15:00 +23°C° 0 mm 2 mps 653 mmHg 37%
    16:00 +21°C° 0 mm 2 mps 653 mmHg 41%
    17:00 +20°C° 0 mm 2 mps 653 mmHg 45%
    18:00 +19°C° 0 mm 1 mps 653 mmHg 49%
    19:00 +19°C° 0 mm 1 mps 653 mmHg 50%
    20:00 +17°C° 0 mm 2 mps 653 mmHg 52%
    21:00 +17°C° 0 mm 2 mps 653 mmHg 54%
    22:00 +17°C° 0 mm 2 mps 653 mmHg 54%
    23:00 +16°C° 0 mm 1 mps 653 mmHg 53%
    Show more